date,time,SUV Intensity [MED/Hr],UV Index,Daily total [MED],Since Last [MED]
28/02/2022,00:05:20,0.000,0.0,0.0,0.0
28/02/2022,00:06:10,-0.000,0.0,0.0,0.0
28/02/2022,00:07:11,0.000,0.0,0.0,0.0
28/02/2022,00:08:11,0.001,0.0,0.0,0.0
28/02/2022,00:09:11,0.001,0.0,0.0,0.0
28/02/2022,00:10:12,0.000,0.0,0.0,0.0
28/02/2022,00:11:11,0.000,0.0,0.0,0.0
28/02/2022,00:12:11,0.000,0.0,0.0,0.0
28/02/2022,00:13:11,0.000,0.0,0.0,0.0
28/02/2022,00:14:11,-0.000,0.0,0.0,0.0
28/02/2022,00:15:12,0.000,0.0,0.0,0.0
28/02/2022,00:16:11,0.000,0.0,0.0,0.0
28/02/2022,00:17:11,0.000,0.0,0.0,0.0
28/02/2022,00:18:11,0.000,0.0,0.0,0.0
28/02/2022,00:19:11,0.001,0.0,0.0,0.0
28/02/2022,00:20:11,0.000,0.0,0.0,0.0
28/02/2022,00:21:11,-0.001,0.0,0.0,0.0
28/02/2022,00:22:03,0.000,0.0,0.0,0.0
28/02/2022,00:23:12,-0.001,0.0,0.0,0.0
28/02/2022,00:24:11,0.001,0.0,0.0,0.0
28/02/2022,00:25:11,0.000,0.0,0.0,0.0
28/02/2022,00:26:12,-0.001,0.0,0.0,0.0
28/02/2022,00:27:12,0.000,0.0,0.0,0.0
28/02/2022,00:28:11,0.000,0.0,0.0,0.0
28/02/2022,00:29:11,-0.001,0.0,0.0,0.0
28/02/2022,00:30:12,-0.001,0.0,0.0,0.0
28/02/2022,00:31:11,0.000,0.0,0.0,0.0
28/02/2022,00:32:11,0.000,0.0,0.0,0.0
28/02/2022,00:33:11,0.000,0.0,0.0,0.0
28/02/2022,00:34:12,0.000,0.0,0.0,0.0
28/02/2022,00:35:12,0.000,0.0,0.0,0.0
28/02/2022,00:36:11,0.001,0.0,0.0,0.0
28/02/2022,00:37:12,0.000,0.0,0.0,0.0
28/02/2022,00:38:11,-0.001,0.0,0.0,0.0
28/02/2022,00:39:11,-0.000,0.0,0.0,0.0
28/02/2022,00:40:11,0.000,0.0,0.0,0.0
28/02/2022,00:41:20,0.000,0.0,0.0,0.0
28/02/2022,00:42:10,-0.001,0.0,0.0,0.0
28/02/2022,00:43:11,-0.000,0.0,0.0,0.0
28/02/2022,00:44:11,0.000,0.0,0.0,0.0
28/02/2022,00:45:12,0.000,0.0,0.0,0.0
28/02/2022,00:46:11,0.001,0.0,0.0,0.0
28/02/2022,00:47:11,0.000,0.0,0.0,0.0
28/02/2022,00:48:12,0.000,0.0,0.0,0.0
28/02/2022,00:49:12,0.002,0.0,0.0,0.0
28/02/2022,00:50:11,-0.000,0.0,0.0,0.0
28/02/2022,00:51:11,0.000,0.0,0.0,0.0
28/02/2022,00:52:19,0.000,0.0,0.0,0.0
28/02/2022,00:53:12,0.000,0.0,0.0,0.0
28/02/2022,00:54:11,-0.001,0.0,0.0,0.0
28/02/2022,00:55:11,0.000,0.0,0.0,0.0
28/02/2022,00:57:12,-0.000,0.0,0.0,0.0
28/02/2022,00:58:11,-0.001,0.0,0.0,0.0
28/02/2022,00:59:11,0.000,0.0,0.0,0.0
28/02/2022,01:00:11,0.000,0.0,0.0,0.0
28/02/2022,01:01:12,0.000,0.0,0.0,0.0
28/02/2022,01:02:20,0.001,0.0,0.0,0.0
28/02/2022,01:03:20,-0.001,0.0,0.0,0.0
28/02/2022,01:04:11,0.000,0.0,0.0,0.0
28/02/2022,01:05:11,0.000,0.0,0.0,0.0
28/02/2022,01:06:12,0.000,0.0,0.0,0.0
28/02/2022,01:07:15,0.001,0.0,0.0,0.0
28/02/2022,01:08:11,0.001,0.0,0.0,0.0
28/02/2022,01:09:11,0.000,0.0,0.0,0.0
28/02/2022,01:10:19,0.000,0.0,0.0,0.0
28/02/2022,01:11:11,0.000,0.0,0.0,0.0
28/02/2022,01:12:11,0.000,0.0,0.0,0.0
28/02/2022,01:13:11,0.001,0.0,0.0,0.0
28/02/2022,01:14:11,-0.001,0.0,0.0,0.0
28/02/2022,01:15:12,0.000,0.0,0.0,0.0
28/02/2022,01:16:12,0.000,0.0,0.0,0.0
28/02/2022,01:17:11,0.000,0.0,0.0,0.0
28/02/2022,01:18:11,-0.001,0.0,0.0,0.0
28/02/2022,01:19:11,0.000,0.0,0.0,0.0
28/02/2022,01:20:11,0.000,0.0,0.0,0.0
28/02/2022,01:21:12,0.000,0.0,0.0,0.0
28/02/2022,01:22:12,0.001,0.0,0.0,0.0
28/02/2022,01:23:11,0.000,0.0,0.0,0.0
28/02/2022,01:24:11,0.001,0.0,0.0,0.0
28/02/2022,01:25:20,0.000,0.0,0.0,0.0
28/02/2022,01:26:12,0.000,0.0,0.0,0.0
28/02/2022,01:27:12,0.000,0.0,0.0,0.0
28/02/2022,01:28:19,0.000,0.0,0.0,0.0
28/02/2022,01:29:11,-0.001,0.0,0.0,0.0
28/02/2022,01:30:11,-0.001,0.0,0.0,0.0
28/02/2022,01:30:59,0.000,0.0,0.0,0.0
28/02/2022,01:32:12,-0.001,0.0,0.0,0.0
28/02/2022,01:33:11,0.000,0.0,0.0,0.0
28/02/2022,01:34:11,0.000,0.0,0.0,0.0
28/02/2022,01:35:12,-0.001,0.0,0.0,0.0
28/02/2022,01:36:20,-0.001,0.0,0.0,0.0
28/02/2022,01:37:11,0.000,0.0,0.0,0.0
28/02/2022,01:38:11,0.000,0.0,0.0,0.0
28/02/2022,01:39:12,0.000,0.0,0.0,0.0
28/02/2022,01:40:12,-0.001,0.0,0.0,0.0
28/02/2022,01:41:11,0.000,0.0,0.0,0.0
28/02/2022,01:42:12,-0.000,0.0,0.0,0.0
28/02/2022,01:43:12,0.000,0.0,0.0,0.0
28/02/2022,01:44:12,0.000,0.0,0.0,0.0
28/02/2022,01:45:12,-0.000,0.0,0.0,0.0
28/02/2022,01:46:20,-0.000,0.0,0.0,0.0
28/02/2022,01:47:13,-0.001,0.0,0.0,0.0
28/02/2022,01:48:11,0.001,0.0,0.0,0.0
28/02/2022,01:49:11,-0.000,0.0,0.0,0.0
28/02/2022,01:50:11,-0.000,0.0,0.0,0.0
28/02/2022,01:51:12,-0.000,0.0,0.0,0.0
28/02/2022,01:52:12,-0.000,0.0,0.0,0.0
28/02/2022,01:53:11,0.001,0.0,0.0,0.0
28/02/2022,01:54:19,0.001,0.0,0.0,0.0
28/02/2022,01:55:11,-0.000,0.0,0.0,0.0
28/02/2022,01:56:11,0.001,0.0,0.0,0.0
28/02/2022,01:57:11,-0.000,0.0,0.0,0.0
28/02/2022,01:58:12,-0.000,0.0,0.0,0.0
28/02/2022,01:59:12,0.000,0.0,0.0,0.0
28/02/2022,02:00:12,-0.000,0.0,0.0,0.0
28/02/2022,02:01:12,-0.000,0.0,0.0,0.0
28/02/2022,02:02:12,0.000,0.0,0.0,0.0
28/02/2022,02:03:12,-0.000,0.0,0.0,0.0
28/02/2022,02:04:11,-0.000,0.0,0.0,0.0
28/02/2022,02:05:11,-0.000,0.0,0.0,0.0
28/02/2022,02:07:12,0.000,0.0,0.0,0.0
28/02/2022,02:08:20,-0.000,0.0,0.0,0.0
28/02/2022,02:09:12,-0.000,0.0,0.0,0.0
28/02/2022,02:10:20,-0.000,0.0,0.0,0.0
28/02/2022,02:11:12,-0.000,0.0,0.0,0.0
28/02/2022,02:12:11,-0.000,0.0,0.0,0.0
28/02/2022,02:13:11,-0.001,0.0,0.0,0.0
28/02/2022,02:14:11,-0.001,0.0,0.0,0.0
28/02/2022,02:15:12,-0.000,0.0,0.0,0.0
28/02/2022,02:16:12,-0.000,0.0,0.0,0.0
28/02/2022,02:17:12,-0.000,0.0,0.0,0.0
28/02/2022,02:18:12,-0.001,0.0,0.0,0.0
28/02/2022,02:19:11,-0.000,0.0,0.0,0.0
28/02/2022,02:20:12,-0.000,0.0,0.0,0.0
28/02/2022,02:21:12,-0.000,0.0,0.0,0.0
28/02/2022,02:22:11,-0.001,0.0,0.0,0.0
28/02/2022,02:23:11,-0.000,0.0,0.0,0.0
28/02/2022,02:24:12,-0.001,0.0,0.0,0.0
28/02/2022,02:25:12,-0.000,0.0,0.0,0.0
28/02/2022,02:26:20,-0.000,0.0,0.0,0.0
28/02/2022,02:27:10,-0.000,0.0,0.0,0.0
28/02/2022,02:28:12,-0.000,0.0,0.0,0.0
28/02/2022,02:29:12,0.001,0.0,0.0,0.0
28/02/2022,02:30:11,-0.000,0.0,0.0,0.0
28/02/2022,02:31:11,-0.000,0.0,0.0,0.0
28/02/2022,02:32:11,-0.000,0.0,0.0,0.0
28/02/2022,02:33:12,-0.000,0.0,0.0,0.0
28/02/2022,02:34:20,-0.000,0.0,0.0,0.0
28/02/2022,02:35:12,-0.001,0.0,0.0,0.0
28/02/2022,02:36:12,-0.000,0.0,0.0,0.0
28/02/2022,02:37:20,-0.001,0.0,0.0,0.0
28/02/2022,02:38:11,-0.001,0.0,0.0,0.0
28/02/2022,02:39:20,-0.001,0.0,0.0,0.0
28/02/2022,02:40:18,-0.000,0.0,0.0,0.0
28/02/2022,02:41:12,-0.000,0.0,0.0,0.0
28/02/2022,02:42:12,-0.001,0.0,0.0,0.0
28/02/2022,02:43:11,-0.000,0.0,0.0,0.0
28/02/2022,02:44:12,-0.001,0.0,0.0,0.0
28/02/2022,02:45:12,-0.001,0.0,0.0,0.0
28/02/2022,02:46:12,-0.001,0.0,0.0,0.0
28/02/2022,02:47:12,-0.001,0.0,0.0,0.0
28/02/2022,02:48:20,-0.000,0.0,0.0,0.0
28/02/2022,02:49:11,-0.001,0.0,0.0,0.0
28/02/2022,02:50:11,-0.001,0.0,0.0,0.0
28/02/2022,02:51:12,-0.001,0.0,0.0,0.0
28/02/2022,02:52:12,-0.001,0.0,0.0,0.0
28/02/2022,02:53:11,-0.000,0.0,0.0,0.0
28/02/2022,02:54:11,-0.001,0.0,0.0,0.0
28/02/2022,02:55:12,-0.001,0.0,0.0,0.0
28/02/2022,02:56:12,-0.001,0.0,0.0,0.0
28/02/2022,02:57:11,-0.001,0.0,0.0,0.0
28/02/2022,02:58:12,-0.001,0.0,0.0,0.0
28/02/2022,02:59:12,-0.001,0.0,0.0,0.0
28/02/2022,03:00:11,-0.001,0.0,0.0,0.0
28/02/2022,03:01:12,-0.001,0.0,0.0,0.0
28/02/2022,03:02:12,-0.001,0.0,0.0,0.0
28/02/2022,03:03:12,-0.001,0.0,0.0,0.0
28/02/2022,03:04:11,0.000,0.0,0.0,0.0
28/02/2022,03:05:12,-0.001,0.0,0.0,0.0
28/02/2022,03:06:19,-0.001,0.0,0.0,0.0
28/02/2022,03:07:11,-0.001,0.0,0.0,0.0
28/02/2022,03:08:12,-0.001,0.0,0.0,0.0
28/02/2022,03:09:12,0.001,0.0,0.0,0.0
28/02/2022,03:10:12,-0.001,0.0,0.0,0.0
28/02/2022,03:11:11,-0.001,0.0,0.0,0.0
28/02/2022,03:12:11,-0.001,0.0,0.0,0.0
28/02/2022,03:13:11,-0.001,0.0,0.0,0.0
28/02/2022,03:14:19,-0.001,0.0,0.0,0.0
28/02/2022,03:15:11,-0.001,0.0,0.0,0.0
28/02/2022,03:16:12,-0.001,0.0,0.0,0.0
28/02/2022,03:17:20,-0.001,0.0,0.0,0.0
28/02/2022,03:18:12,-0.001,0.0,0.0,0.0
28/02/2022,03:19:12,-0.001,0.0,0.0,0.0
28/02/2022,03:20:11,-0.001,0.0,0.0,0.0
28/02/2022,03:21:12,-0.001,0.0,0.0,0.0
28/02/2022,03:22:12,-0.001,0.0,0.0,0.0
28/02/2022,03:23:12,-0.001,0.0,0.0,0.0
28/02/2022,03:24:12,-0.001,0.0,0.0,0.0
28/02/2022,03:25:11,-0.001,0.0,0.0,0.0
28/02/2022,03:26:11,-0.001,0.0,0.0,0.0
28/02/2022,03:27:12,-0.001,0.0,0.0,0.0
28/02/2022,03:28:20,-0.001,0.0,0.0,0.0
28/02/2022,03:29:11,-0.001,0.0,0.0,0.0
28/02/2022,03:30:11,-0.001,0.0,0.0,0.0
28/02/2022,03:31:12,-0.001,0.0,0.0,0.0
28/02/2022,03:32:12,-0.001,0.0,0.0,0.0
28/02/2022,03:33:12,-0.001,0.0,0.0,0.0
28/02/2022,03:34:12,-0.001,0.0,0.0,0.0
28/02/2022,03:35:12,-0.001,0.0,0.0,0.0
28/02/2022,03:36:12,-0.001,0.0,0.0,0.0
28/02/2022,03:37:12,-0.001,0.0,0.0,0.0
28/02/2022,03:38:11,-0.001,0.0,0.0,0.0
28/02/2022,03:39:11,-0.001,0.0,0.0,0.0
28/02/2022,03:40:12,-0.001,0.0,0.0,0.0
28/02/2022,03:41:11,-0.001,0.0,0.0,0.0
28/02/2022,03:42:11,-0.001,0.0,0.0,0.0
28/02/2022,03:43:22,-0.001,0.0,0.0,0.0
28/02/2022,03:44:11,-0.001,0.0,0.0,0.0
28/02/2022,03:45:12,-0.001,0.0,0.0,0.0
28/02/2022,03:46:20,-0.001,0.0,0.0,0.0
28/02/2022,03:47:11,-0.001,0.0,0.0,0.0
28/02/2022,03:48:11,-0.001,0.0,0.0,0.0
28/02/2022,03:49:12,-0.001,0.0,0.0,0.0
28/02/2022,03:50:12,-0.001,0.0,0.0,0.0
28/02/2022,03:51:12,-0.001,0.0,0.0,0.0
28/02/2022,03:52:11,-0.001,0.0,0.0,0.0
28/02/2022,03:53:11,-0.001,0.0,0.0,0.0
28/02/2022,03:54:12,-0.001,0.0,0.0,0.0
28/02/2022,03:55:11,-0.001,0.0,0.0,0.0
28/02/2022,03:56:12,-0.001,0.0,0.0,0.0
28/02/2022,03:57:12,-0.001,0.0,0.0,0.0
28/02/2022,03:58:12,-0.001,0.0,0.0,0.0
28/02/2022,04:00:04,-0.001,0.0,0.0,0.0
28/02/2022,04:01:20,-0.001,0.0,0.0,0.0
28/02/2022,04:02:12,-0.001,0.0,0.0,0.0
28/02/2022,04:03:12,-0.001,0.0,0.0,0.0
28/02/2022,04:04:20,-0.001,0.0,0.0,0.0
28/02/2022,04:05:11,-0.001,0.0,0.0,0.0
28/02/2022,04:06:12,-0.002,0.0,0.0,0.0
28/02/2022,04:07:12,-0.001,0.0,0.0,0.0
28/02/2022,04:08:12,-0.001,0.0,0.0,0.0
28/02/2022,04:09:12,-0.001,0.0,0.0,0.0
28/02/2022,04:10:11,-0.001,0.0,0.0,0.0
28/02/2022,04:11:12,-0.001,0.0,0.0,0.0
28/02/2022,04:12:20,-0.002,0.0,0.0,0.0
28/02/2022,04:13:11,-0.001,0.0,0.0,0.0
28/02/2022,04:14:12,-0.001,0.0,0.0,0.0
28/02/2022,04:15:12,-0.002,0.0,0.0,0.0
28/02/2022,04:16:12,-0.001,0.0,0.0,0.0
28/02/2022,04:17:12,-0.001,0.0,0.0,0.0
28/02/2022,04:18:11,-0.001,0.0,0.0,0.0
28/02/2022,04:19:11,-0.001,0.0,0.0,0.0
28/02/2022,04:20:12,-0.001,0.0,0.0,0.0
28/02/2022,04:21:11,-0.001,0.0,0.0,0.0
28/02/2022,04:22:20,-0.000,0.0,0.0,0.0
28/02/2022,04:23:18,-0.001,0.0,0.0,0.0
28/02/2022,04:24:12,-0.001,0.0,0.0,0.0
28/02/2022,04:25:12,-0.002,0.0,0.0,0.0
28/02/2022,04:26:12,-0.001,0.0,0.0,0.0
28/02/2022,04:27:11,-0.001,0.0,0.0,0.0
28/02/2022,04:28:11,-0.001,0.0,0.0,0.0
28/02/2022,04:29:13,-0.001,0.0,0.0,0.0
28/02/2022,04:30:12,-0.001,0.0,0.0,0.0
28/02/2022,04:31:12,-0.001,0.0,0.0,0.0
28/02/2022,04:32:11,-0.001,0.0,0.0,0.0
28/02/2022,04:33:20,-0.001,0.0,0.0,0.0
28/02/2022,04:34:12,-0.001,0.0,0.0,0.0
28/02/2022,04:35:12,-0.001,0.0,0.0,0.0
28/02/2022,04:36:12,-0.001,0.0,0.0,0.0
28/02/2022,04:37:13,-0.001,0.0,0.0,0.0
28/02/2022,04:38:12,-0.001,0.0,0.0,0.0
28/02/2022,04:39:11,-0.001,0.0,0.0,0.0
28/02/2022,04:40:11,-0.001,0.0,0.0,0.0
28/02/2022,04:41:20,-0.001,0.0,0.0,0.0
28/02/2022,04:42:10,-0.001,0.0,0.0,0.0
28/02/2022,04:43:12,-0.001,0.0,0.0,0.0
28/02/2022,04:44:13,-0.001,0.0,0.0,0.0
28/02/2022,04:45:12,-0.001,0.0,0.0,0.0
28/02/2022,04:46:12,-0.001,0.0,0.0,0.0
28/02/2022,04:47:12,-0.001,0.0,0.0,0.0
28/02/2022,04:48:20,-0.001,0.0,0.0,0.0
28/02/2022,04:49:12,-0.001,0.0,0.0,0.0
28/02/2022,04:50:12,-0.001,0.0,0.0,0.0
28/02/2022,04:51:11,-0.001,0.0,0.0,0.0
28/02/2022,04:52:11,-0.001,0.0,0.0,0.0
28/02/2022,04:53:12,-0.001,0.0,0.0,0.0
28/02/2022,04:54:12,-0.001,0.0,0.0,0.0
28/02/2022,04:55:12,-0.001,0.0,0.0,0.0
28/02/2022,04:56:20,-0.001,0.0,0.0,0.0
28/02/2022,04:57:12,-0.001,0.0,0.0,0.0
28/02/2022,04:58:11,-0.001,0.0,0.0,0.0
28/02/2022,04:59:12,-0.001,0.0,0.0,0.0
28/02/2022,05:00:12,-0.001,0.0,0.0,0.0
28/02/2022,05:02:12,-0.002,0.0,0.0,0.0
28/02/2022,05:03:20,-0.001,0.0,0.0,0.0
28/02/2022,05:04:10,-0.001,0.0,0.0,0.0
28/02/2022,05:05:13,-0.001,0.0,0.0,0.0
28/02/2022,05:06:12,-0.001,0.0,0.0,0.0
28/02/2022,05:07:12,-0.001,0.0,0.0,0.0
28/02/2022,05:08:11,-0.001,0.0,0.0,0.0
28/02/2022,05:09:11,-0.001,0.0,0.0,0.0
28/02/2022,05:10:11,-0.001,0.0,0.0,0.0
28/02/2022,05:11:12,-0.002,0.0,0.0,0.0
28/02/2022,05:12:12,-0.001,0.0,0.0,0.0
28/02/2022,05:13:12,-0.001,0.0,0.0,0.0
28/02/2022,05:14:12,-0.001,0.0,0.0,0.0
28/02/2022,05:15:12,-0.001,0.0,0.0,0.0
28/02/2022,05:16:12,-0.001,0.0,0.0,0.0
28/02/2022,05:17:20,-0.001,0.0,0.0,0.0
28/02/2022,05:18:12,-0.001,0.0,0.0,0.0
28/02/2022,05:19:12,-0.001,0.0,0.0,0.0
28/02/2022,05:20:11,-0.001,0.0,0.0,0.0
28/02/2022,05:21:12,-0.001,0.0,0.0,0.0
28/02/2022,05:22:12,-0.001,0.0,0.0,0.0
28/02/2022,05:23:12,-0.001,0.0,0.0,0.0
28/02/2022,05:24:12,-0.001,0.0,0.0,0.0
28/02/2022,05:25:13,-0.001,0.0,0.0,0.0
28/02/2022,05:26:12,-0.001,0.0,0.0,0.0
28/02/2022,05:27:12,-0.001,0.0,0.0,0.0
28/02/2022,05:28:11,-0.001,0.0,0.0,0.0
28/02/2022,05:29:12,-0.001,0.0,0.0,0.0
28/02/2022,05:30:12,-0.001,0.0,0.0,0.0
28/02/2022,05:31:12,-0.001,0.0,0.0,0.0
28/02/2022,05:32:20,-0.001,0.0,0.0,0.0
28/02/2022,05:33:12,-0.001,0.0,0.0,0.0
28/02/2022,05:34:11,-0.001,0.0,0.0,0.0
28/02/2022,05:35:21,-0.001,0.0,0.0,0.0
28/02/2022,05:36:12,-0.001,0.0,0.0,0.0
28/02/2022,05:37:12,-0.001,0.0,0.0,0.0
28/02/2022,05:38:12,-0.001,0.0,0.0,0.0
28/02/2022,05:39:11,-0.001,0.0,0.0,0.0
28/02/2022,05:40:12,-0.002,0.0,0.0,0.0
28/02/2022,05:41:12,-0.001,0.0,0.0,0.0
28/02/2022,05:42:12,-0.001,0.0,0.0,0.0
28/02/2022,05:43:12,-0.001,0.0,0.0,0.0
28/02/2022,05:44:12,-0.002,0.0,0.0,0.0
28/02/2022,05:45:20,-0.001,0.0,0.0,0.0
28/02/2022,05:46:12,-0.001,0.0,0.0,0.0
28/02/2022,05:47:12,-0.001,0.0,0.0,0.0
28/02/2022,05:48:12,-0.002,0.0,0.0,0.0
28/02/2022,05:49:12,-0.001,0.0,0.0,0.0
28/02/2022,05:50:12,-0.001,0.0,0.0,0.0
28/02/2022,05:51:12,-0.001,0.0,0.0,0.0
28/02/2022,05:52:12,-0.001,0.0,0.0,0.0
28/02/2022,05:53:12,-0.001,0.0,0.0,0.0
28/02/2022,05:54:20,-0.001,0.0,0.0,0.0
28/02/2022,05:55:11,-0.002,0.0,0.0,0.0
28/02/2022,05:56:12,-0.001,0.0,0.0,0.0
28/02/2022,05:57:12,-0.001,0.0,0.0,0.0
28/02/2022,05:58:12,-0.001,0.0,0.0,0.0
28/02/2022,05:59:12,-0.001,0.0,0.0,0.0
28/02/2022,06:00:12,-0.001,0.0,0.0,0.0
28/02/2022,06:01:11,-0.001,0.0,0.0,0.0
28/02/2022,06:02:12,-0.001,0.0,0.0,0.0
28/02/2022,06:03:12,-0.002,0.0,0.0,0.0
28/02/2022,06:04:20,-0.002,0.0,0.0,0.0
28/02/2022,06:05:12,-0.001,0.0,0.0,0.0
28/02/2022,06:06:12,-0.001,0.0,0.0,0.0
28/02/2022,06:07:12,-0.001,0.0,0.0,0.0
28/02/2022,06:08:12,-0.001,0.0,0.0,0.0
28/02/2022,06:09:12,-0.001,0.0,0.0,0.0
28/02/2022,06:10:12,-0.001,0.0,0.0,0.0
28/02/2022,06:11:12,-0.001,0.0,0.0,0.0
28/02/2022,06:12:20,-0.001,0.0,0.0,0.0
28/02/2022,06:13:12,-0.001,0.0,0.0,0.0
28/02/2022,06:14:12,-0.001,0.0,0.0,0.0
28/02/2022,06:15:12,-0.001,0.0,0.0,0.0
28/02/2022,06:16:12,-0.001,0.0,0.0,0.0
28/02/2022,06:17:12,-0.001,0.0,0.0,0.0
28/02/2022,06:18:11,-0.001,0.0,0.0,0.0
28/02/2022,06:19:12,-0.001,0.0,0.0,0.0
28/02/2022,06:20:12,-0.001,0.0,0.0,0.0
28/02/2022,06:21:12,-0.001,0.0,0.0,0.0
28/02/2022,06:22:12,-0.001,0.0,0.0,0.0
28/02/2022,06:23:20,-0.001,0.0,0.0,0.0
28/02/2022,06:24:12,-0.001,0.0,0.0,0.0
28/02/2022,06:25:12,-0.002,0.0,0.0,0.0
28/02/2022,06:26:12,-0.001,0.0,0.0,0.0
28/02/2022,06:27:12,-0.002,0.0,0.0,0.0
28/02/2022,06:28:12,-0.001,0.0,0.0,0.0
28/02/2022,06:29:12,-0.001,0.0,0.0,0.0
28/02/2022,06:30:11,-0.001,0.0,0.0,0.0
28/02/2022,06:31:12,-0.001,0.0,0.0,0.0
28/02/2022,06:32:12,-0.001,0.0,0.0,0.0
28/02/2022,06:33:20,-0.001,0.0,0.0,0.0
28/02/2022,06:34:20,-0.001,0.0,0.0,0.0
28/02/2022,06:35:12,-0.002,0.0,0.0,0.0
28/02/2022,06:36:12,-0.001,0.0,0.0,0.0
28/02/2022,06:37:12,-0.002,0.0,0.0,0.0
28/02/2022,06:38:12,-0.002,0.0,0.0,0.0
28/02/2022,06:39:12,-0.001,0.0,0.0,0.0
28/02/2022,06:40:12,-0.001,0.0,0.0,0.0
28/02/2022,06:41:20,-0.001,0.0,0.0,0.0
28/02/2022,06:42:13,-0.001,0.0,0.0,0.0
28/02/2022,06:43:12,-0.001,0.0,0.0,0.0
28/02/2022,06:44:11,-0.001,0.0,0.0,0.0
28/02/2022,06:45:12,-0.001,0.0,0.0,0.0
28/02/2022,06:46:12,-0.001,0.0,0.0,0.0
28/02/2022,06:47:12,-0.001,0.0,0.0,0.0
28/02/2022,06:48:11,-0.001,0.0,0.0,0.0
28/02/2022,06:49:12,-0.001,0.0,0.0,0.0
28/02/2022,06:50:12,-0.001,0.0,0.0,0.0
28/02/2022,06:51:12,-0.001,0.0,0.0,0.0
28/02/2022,06:52:20,-0.001,0.0,0.0,0.0
28/02/2022,06:53:12,-0.001,0.0,0.0,0.0
28/02/2022,06:54:12,-0.000,0.0,0.0,0.0
28/02/2022,06:55:11,-0.000,0.0,0.0,0.0
28/02/2022,06:56:14,-0.000,0.0,0.0,0.0
28/02/2022,06:57:12,0.000,0.0,0.0,0.0
28/02/2022,06:58:12,0.001,0.0,0.0,0.0
28/02/2022,06:59:12,0.000,0.0,0.0,0.0
28/02/2022,07:00:11,0.000,0.0,0.0,0.0
28/02/2022,07:01:12,0.000,0.0,0.0,0.0
28/02/2022,07:02:12,0.001,0.0,0.0,0.0
28/02/2022,07:03:12,0.000,0.0,0.0,0.0
28/02/2022,07:04:12,0.000,0.0,0.0,0.0
28/02/2022,07:05:11,-0.000,0.0,0.0,0.0
28/02/2022,07:06:12,0.001,0.0,0.0,0.0
28/02/2022,07:07:12,0.001,0.0,0.0,0.0
28/02/2022,07:08:12,0.002,0.0,0.0,0.0
28/02/2022,07:09:12,0.000,0.0,0.0,0.0
28/02/2022,07:10:20,0.000,0.0,0.0,0.0
28/02/2022,07:11:12,0.000,0.0,0.0,0.0
28/02/2022,07:12:12,0.001,0.0,0.0,0.0
28/02/2022,07:13:12,-0.000,0.0,0.0,0.0
28/02/2022,07:14:12,0.001,0.0,0.0,0.0
28/02/2022,07:15:12,0.002,0.0,0.0,0.0
28/02/2022,07:16:12,0.002,0.0,0.0,0.0
28/02/2022,07:17:12,0.002,0.0,0.0,0.0
28/02/2022,07:18:12,0.001,0.0,0.0,0.0
28/02/2022,07:19:12,0.001,0.0,0.0,0.0
28/02/2022,07:20:12,0.002,0.0,0.0,0.0
28/02/2022,07:21:12,0.001,0.0,0.0,0.0
28/02/2022,07:22:12,0.002,0.0,0.0,0.0
28/02/2022,07:23:12,0.002,0.0,0.0,0.0
28/02/2022,07:24:12,0.003,0.0,0.0,0.0
28/02/2022,07:25:12,0.003,0.0,0.0,0.0
28/02/2022,07:26:13,0.003,0.0,0.0,0.0
28/02/2022,07:27:12,0.004,0.0,0.0,0.0
28/02/2022,07:28:12,0.004,0.0,0.0,0.0
28/02/2022,07:29:20,0.004,0.0,0.0,0.0
28/02/2022,07:30:11,0.005,0.0,0.0,0.0
28/02/2022,07:31:12,0.006,0.0,0.0,0.0
28/02/2022,07:32:12,0.006,0.0,0.0,0.0
28/02/2022,07:33:12,0.007,0.0,0.0,0.0
28/02/2022,07:34:12,0.008,0.0,0.0,0.0
28/02/2022,07:35:12,0.008,0.0,0.0,0.0
28/02/2022,07:36:12,0.008,0.0,0.0,0.0
28/02/2022,07:37:11,0.008,0.0,0.001,0.001
28/02/2022,07:38:12,0.008,0.0,0.001,0.0
28/02/2022,07:39:20,0.010,0.0,0.001,0.0
28/02/2022,07:40:21,0.010,0.0,0.001,0.0
28/02/2022,07:41:12,0.010,0.0,0.001,0.0
28/02/2022,07:42:12,0.012,0.0,0.001,0.0
28/02/2022,07:43:12,0.012,0.0,0.002,0.001
28/02/2022,07:44:12,0.012,0.0,0.002,0.0
28/02/2022,07:45:12,0.013,0.0,0.002,0.0
28/02/2022,07:46:12,0.014,0.0,0.002,0.0
28/02/2022,07:47:20,0.014,0.0,0.003,0.001
28/02/2022,07:48:12,0.015,0.0,0.003,0.0
28/02/2022,07:49:12,0.016,0.0,0.003,0.0
28/02/2022,07:50:03,0.016,0.0,0.003,0.0
28/02/2022,07:51:13,0.016,0.0,0.004,0.001
28/02/2022,07:52:12,0.016,0.0,0.004,0.0
28/02/2022,07:53:12,0.016,0.0,0.004,0.0
28/02/2022,07:54:12,0.016,0.0,0.004,0.0
28/02/2022,07:55:21,0.015,0.0,0.005,0.001
28/02/2022,07:56:12,0.013,0.0,0.005,0.0
28/02/2022,07:57:12,0.013,0.0,0.005,0.0
28/02/2022,07:58:12,0.012,0.0,0.005,0.0
28/02/2022,07:59:12,0.012,0.0,0.005,0.0
28/02/2022,08:00:12,0.012,0.0,0.006,0.001
28/02/2022,08:01:12,0.013,0.0,0.006,0.0
28/02/2022,08:02:12,0.015,0.0,0.006,0.0
28/02/2022,08:03:12,0.016,0.0,0.006,0.0
28/02/2022,08:04:12,0.016,0.0,0.007,0.001
28/02/2022,08:05:20,0.016,0.0,0.007,0.0
28/02/2022,08:06:12,0.016,0.0,0.007,0.0
28/02/2022,08:07:12,0.016,0.0,0.007,0.0
28/02/2022,08:08:20,0.016,0.0,0.008,0.001
28/02/2022,08:09:12,0.016,0.0,0.008,0.0
28/02/2022,08:10:12,0.016,0.0,0.008,0.0
28/02/2022,08:11:12,0.016,0.0,0.009,0.001
28/02/2022,08:12:12,0.016,0.0,0.009,0.0
28/02/2022,08:13:12,0.016,0.0,0.009,0.0
28/02/2022,08:14:12,0.015,0.0,0.009,0.0
28/02/2022,08:15:12,0.016,0.0,0.01,0.001
28/02/2022,08:16:20,0.017,0.0,0.01,0.0
28/02/2022,08:17:12,0.016,0.0,0.01,0.0
28/02/2022,08:18:12,0.020,0.0,0.01,0.0
28/02/2022,08:19:12,0.020,0.0,0.011,0.001
28/02/2022,08:20:12,0.020,0.0,0.011,0.0
28/02/2022,08:21:12,0.020,0.0,0.011,0.0
28/02/2022,08:22:12,0.023,0.0,0.012,0.001
28/02/2022,08:23:12,0.026,0.0,0.012,0.0
28/02/2022,08:24:12,0.028,0.0,0.013,0.001
28/02/2022,08:25:12,0.029,0.0,0.013,0.0
28/02/2022,08:26:12,0.028,0.0,0.014,0.001
28/02/2022,08:27:12,0.025,0.0,0.014,0.0
28/02/2022,08:28:13,0.024,0.0,0.014,0.0
28/02/2022,08:29:12,0.024,0.0,0.015,0.001
28/02/2022,08:31:12,0.027,0.0,0.016,0.001
28/02/2022,08:32:12,0.025,0.0,0.016,0.0
28/02/2022,08:33:12,0.025,0.0,0.016,0.0
28/02/2022,08:34:12,0.025,0.0,0.017,0.001
28/02/2022,08:35:12,0.024,0.0,0.017,0.0
28/02/2022,08:36:12,0.020,0.0,0.018,0.001
28/02/2022,08:37:12,0.020,0.0,0.018,0.0
28/02/2022,08:38:12,0.019,0.0,0.018,0.0
28/02/2022,08:39:13,0.017,0.0,0.019,0.001
28/02/2022,08:40:13,0.020,0.0,0.019,0.0
28/02/2022,08:41:13,0.020,0.0,0.019,0.0
28/02/2022,08:42:20,0.019,0.0,0.02,0.001
28/02/2022,08:43:12,0.017,0.0,0.02,0.0
28/02/2022,08:44:12,0.017,0.0,0.02,0.0
28/02/2022,08:45:12,0.016,0.0,0.02,0.0
28/02/2022,08:46:12,0.020,0.0,0.021,0.001
28/02/2022,08:47:12,0.026,0.0,0.021,0.0
28/02/2022,08:48:12,0.030,0.0,0.022,0.001
28/02/2022,08:49:12,0.029,0.0,0.022,0.0
28/02/2022,08:50:12,0.028,0.0,0.023,0.001
28/02/2022,08:51:12,0.035,0.0,0.023,0.0
28/02/2022,08:52:22,0.039,0.0,0.024,0.001
28/02/2022,08:53:12,0.049,0.0,0.024,0.0
28/02/2022,08:54:12,0.054,0.0,0.025,0.001
28/02/2022,08:55:12,0.060,0.0,0.026,0.001
28/02/2022,08:56:12,0.064,0.0,0.027,0.001
28/02/2022,08:57:12,0.062,0.0,0.028,0.001
28/02/2022,08:58:13,0.062,0.0,0.029,0.001
28/02/2022,08:59:12,0.065,0.0,0.03,0.001
28/02/2022,09:00:15,0.057,0.0,0.031,0.001
28/02/2022,09:01:12,0.060,0.0,0.032,0.001
28/02/2022,09:02:12,0.063,0.0,0.033,0.001
28/02/2022,09:03:14,0.065,0.0,0.034,0.001
28/02/2022,09:04:12,0.066,0.0,0.036,0.002
28/02/2022,09:05:12,0.072,0.0,0.037,0.001
28/02/2022,09:06:12,0.074,0.0,0.038,0.001
28/02/2022,09:07:20,0.077,0.0,0.039,0.001
28/02/2022,09:08:12,0.078,0.0,0.04,0.001
28/02/2022,09:09:12,0.080,0.0,0.042,0.002
28/02/2022,09:10:13,0.080,0.0,0.043,0.001
28/02/2022,09:11:12,0.082,0.0,0.044,0.001
28/02/2022,09:12:12,0.083,0.0,0.046,0.002
28/02/2022,09:13:12,0.082,0.0,0.047,0.001
28/02/2022,09:14:12,0.081,0.0,0.049,0.002
28/02/2022,09:15:13,0.082,0.0,0.05,0.001
28/02/2022,09:16:13,0.084,0.0,0.051,0.001
28/02/2022,09:17:12,0.088,0.0,0.053,0.002
28/02/2022,09:18:12,0.092,0.0,0.054,0.001
28/02/2022,09:19:12,0.096,0.0,0.056,0.002
28/02/2022,09:20:12,0.099,0.0,0.057,0.001
28/02/2022,09:21:12,0.100,0.0,0.059,0.002
28/02/2022,09:22:12,0.102,0.0,0.061,0.002
28/02/2022,09:23:12,0.107,0.0,0.063,0.002
28/02/2022,09:24:13,0.110,0.0,0.064,0.001
28/02/2022,09:25:12,0.116,0.0,0.066,0.002
28/02/2022,09:26:12,0.123,0.0,0.068,0.002
28/02/2022,09:27:12,0.130,0.0,0.07,0.002
28/02/2022,09:28:20,0.137,0.0,0.073,0.003
28/02/2022,09:29:12,0.142,0.0,0.075,0.002
28/02/2022,09:30:12,0.145,0.0,0.077,0.002
28/02/2022,09:31:12,0.151,0.0,0.08,0.003
28/02/2022,09:32:12,0.156,0.0,0.082,0.002
28/02/2022,09:33:12,0.165,0.0,0.085,0.003
28/02/2022,09:34:12,0.170,0.0,0.088,0.003
28/02/2022,09:35:12,0.178,0.0,0.091,0.003
28/02/2022,09:36:20,0.184,0.0,0.094,0.003
28/02/2022,09:37:12,0.182,0.0,0.097,0.003
28/02/2022,09:38:12,0.179,0.0,0.1,0.003
28/02/2022,09:39:12,0.174,0.0,0.103,0.003
28/02/2022,09:40:13,0.171,0.0,0.106,0.003
28/02/2022,09:42:13,0.165,0.0,0.111,0.005
28/02/2022,09:43:12,0.163,0.0,0.114,0.003
28/02/2022,09:44:05,0.162,0.0,0.116,0.002
28/02/2022,09:45:13,0.160,0.0,0.119,0.003
28/02/2022,09:46:20,0.160,0.0,0.122,0.003
28/02/2022,09:47:12,0.160,0.0,0.125,0.003
28/02/2022,09:48:12,0.165,0.0,0.127,0.002
28/02/2022,09:49:13,0.173,0.0,0.13,0.003
28/02/2022,09:50:12,0.181,0.0,0.133,0.003
28/02/2022,09:51:13,0.188,0.0,0.136,0.003
28/02/2022,09:52:12,0.196,0.0,0.139,0.003
28/02/2022,09:53:12,0.203,0.0,0.143,0.004
28/02/2022,09:54:14,0.210,0.0,0.146,0.003
28/02/2022,09:55:12,0.216,0.0,0.15,0.004
28/02/2022,09:56:12,0.226,1.0,0.153,0.003
28/02/2022,09:57:21,0.235,1.0,0.158,0.005
28/02/2022,09:58:11,0.239,1.0,0.161,0.003
28/02/2022,09:59:12,0.243,1.0,0.165,0.004
28/02/2022,10:00:12,0.255,1.0,0.169,0.004
28/02/2022,10:01:12,0.265,1.0,0.174,0.005
28/02/2022,10:02:12,0.263,1.0,0.178,0.004
28/02/2022,10:03:12,0.272,1.0,0.182,0.004
28/02/2022,10:04:12,0.285,1.0,0.187,0.005
28/02/2022,10:05:13,0.300,1.0,0.192,0.005
28/02/2022,10:06:12,0.288,1.0,0.197,0.005
28/02/2022,10:07:21,0.282,1.0,0.202,0.005
28/02/2022,10:08:12,0.281,1.0,0.206,0.004
28/02/2022,10:09:12,0.281,1.0,0.211,0.005
28/02/2022,10:10:12,0.291,1.0,0.216,0.005
28/02/2022,10:11:13,0.284,1.0,0.221,0.005
28/02/2022,10:12:12,0.287,1.0,0.225,0.004
28/02/2022,10:13:12,0.288,1.0,0.23,0.005
28/02/2022,10:14:12,0.276,1.0,0.235,0.005
28/02/2022,10:15:13,0.282,1.0,0.24,0.005
28/02/2022,10:16:12,0.282,1.0,0.244,0.004
28/02/2022,10:17:21,0.293,1.0,0.25,0.006